Flag for Colombia Weather past 2 weeks in Medellin, Colombia

Now
61 °F

Broken clouds.


Feels Like: 61 °F
Forecast: 65 / 85 °F
Wind: No wind

Location: Rionegro / J. M. Cordova

Current Time: May 22, 2015 at 9:11:08 AM

Latest Report: May 22, 2015 at 8:00 AM


Visibility: 6 mi

Pressure: 30.38 "Hg

Humidity: 88%

Dew point: 57 °F

Location of MedellinLocation

Historic Weather in Medellin — Graph

°F

Medellin temperature yesterday

Maximum temperature yesterday: 73 °F (at 2:00 PM)
Minimum temperature yesterday: 57 °F (at 1:00 AM)
Average temperature yesterday: 63 °F

Past Weeks' High & Low Weather Summary

 TemperatureHumidityPressure
High77 °F (May 7, 1:00 PM)100% (May 9, 5:00 AM)30.38 "Hg (May 9, 5:00 AM)
Low54 °F (May 9, 5:00 AM)36% (May 12, 1:00 PM)30.05 "Hg (May 9, 8:00 AM)
Average65 °F76%30.28 "Hg
* Reported May 7 8:00 AM — May 22 8:00 AM, Medellin, Weather by CustomWeather, © 2015

Note: Actual official high and low records may vary slightly from our data, if they occured in-between our weather recording intervals... More about our weather records

Advertising

Medellin weather history for previous 24 hours

 ConditionsComfort  
Time TempWeatherWind HumidityBarometerVisibility
8:00 AM
Fri, May 22
61 °FBroken clouds.No wind88%30.38 "Hg6 mi
7:00 AM59 °FPartly sunny.No wind94%30.36 "Hg2 mi
6:00 AM57 °FSnow. Broken clouds.No wind100%30.34 "HgN/A
5:00 AM59 °FFog.No wind94%30.33 "Hg5 mi
4:00 AM59 °FFog.No wind94%30.33 "Hg5 mi
3:00 AM59 °FRain. Mostly cloudy.5 mph94%30.34 "Hg3 mi
2:00 AM59 °FRain. Mostly cloudy.2 mph94%30.36 "Hg3 mi
1:00 AM61 °FDrizzle. Mostly cloudy.No wind94%30.37 "Hg3 mi
12:00 AM61 °FPartly cloudy.No wind94%30.35 "Hg6 mi
11:00 PM
Thu, May 21
61 °FPassing clouds.No wind94%30.37 "HgN/A
10:00 PM61 °FPartly cloudy.No wind94%30.37 "HgN/A
9:00 PM61 °FThunderstorms. Passing clouds.3 mph94%30.33 "Hg5 mi
8:00 PM63 °FThunderstorms. Passing clouds.2 mph88%30.30 "Hg6 mi
7:00 PM64 °FScattered showers. Passing clouds.8 mph83%30.27 "Hg6 mi
6:00 PM68 °FScattered clouds.7 mph69%30.25 "HgN/A
5:00 PM72 °FScattered clouds.12 mph57%30.25 "HgN/A
4:00 PM73 °FScattered clouds.14 mph50%30.24 "HgN/A
3:00 PM73 °FPartly sunny.12 mph50%30.25 "HgN/A
2:00 PM73 °FPartly sunny.12 mph50%30.27 "HgN/A
1:00 PM72 °FPartly sunny.9 mph50%30.30 "HgN/A
12:00 PM70 °FBroken clouds.9 mph60%30.32 "HgN/A
11:00 AM64 °FBroken clouds.5 mph78%30.34 "HgN/A
10:00 AM63 °FBroken clouds.2 mph83%30.35 "HgN/A
9:00 AM59 °FPartly sunny.2 mph88%30.35 "HgN/A
Weather by CustomWeather, © 2015

See weather overviewHow to use our weather pages